CW5456 Hansville WA US current weather conditions

sailwx.info

Wind from 314

Air temperature 7.2° C
Dewpoint 5.2° C

Last reported at 2016-Feb-07 00:44 UTC.
Time now 2016-Feb-07 01:27 UTC

Location: N 47°55' W 122°35'.
View on Google Maps.

See reports from other nearby stations

  
Tides and Currents Weather Stations Pressure Air Temp Water Temp Dewpoint Dewpoint Depression Visibility Wind Speed Wind Dir Waves Ship Positions
date/time (UTC)wind fromknots sea level pressurealtimeterstation pressurevisibilityair tempwater tempwave heightnotes
2016-Feb-07 00:44 314 7.2
2016-Feb-07 00:39 314 7.2
2016-Feb-07 00:34 314 7.2
2016-Feb-07 00:29 313 7.8
2016-Feb-07 00:24 314 7.8
2016-Feb-07 00:19 314 7.8
2016-Feb-07 00:15 314 7.8
2016-Feb-07 00:09 314 7.8
2016-Feb-07 00:05 313 7.8
2016-Feb-06 23:59 314 7.8
2016-Feb-06 23:55 314 0 gusting 1 7.8
2016-Feb-06 23:49 314 0 gusting 2 7.8
2016-Feb-06 23:44 314 7.8
2016-Feb-06 23:39 313 1 gusting 2 7.8
2016-Feb-06 23:34 313 1 gusting 2 7.8
2016-Feb-06 23:30 313 1 gusting 3 7.8
2016-Feb-06 23:24 314 1 gusting 3 7.8
2016-Feb-06 23:20 314 0 gusting 2 7.8
2016-Feb-06 23:14 314 0 gusting 3 7.8
2016-Feb-06 23:09 314 2 gusting 3 7.8
2016-Feb-06 23:04 313 2 gusting 2 7.8
2016-Feb-06 23:00 313 1 gusting 3 7.8
2016-Feb-06 22:54 313 2 gusting 3 7.8
2016-Feb-06 22:49 313 2 gusting 4 7.8
2016-Feb-06 22:44 313 2 gusting 4 7.8
2016-Feb-06 22:39 313 1 gusting 4 7.8
2016-Feb-06 22:34 313 2 gusting 4 7.8
2016-Feb-06 22:29 313 3 gusting 4 7.8
2016-Feb-06 22:24 313 3 gusting 3 7.8
2016-Feb-06 22:19 291 2 gusting 2 7.8
2016-Feb-06 22:15 290 1 gusting 2 7.8
2016-Feb-06 22:10 291 1 gusting 2 7.8
2016-Feb-06 22:05 291 0 gusting 2 7.8
2016-Feb-06 22:00 290 1 gusting 3 7.8
2016-Feb-06 21:54 291 1 gusting 3 7.8
2016-Feb-06 21:50 291 1 gusting 3 7.8
2016-Feb-06 21:45 291 1 gusting 3 7.8
2016-Feb-06 21:40 290 1 gusting 3 7.8
2016-Feb-06 21:35 291 2 gusting 3 7.8
2016-Feb-06 21:29 290 7.8
2016-Feb-06 21:25 290 0 gusting 3 7.8
2016-Feb-06 21:20 291 1 gusting 3 7.8
2016-Feb-06 21:15 287 0 gusting 2 7.8
2016-Feb-06 21:10 288 0 gusting 2 7.8
2016-Feb-06 21:04 287 0 gusting 1 7.8
2016-Feb-06 21:00 288 8.3
2016-Feb-06 20:55 288 8.3
2016-Feb-06 20:50 151 1 gusting 4 8.3
2016-Feb-06 20:44 148 3 gusting 4 8.3
2016-Feb-06 20:40 144 0 gusting 4 8.3
2016-Feb-06 20:35 152 1 gusting 4 8.3
2016-Feb-06 20:30 184 3 gusting 4 8.3
2016-Feb-06 20:25 138 3 gusting 4 8.3
2016-Feb-06 20:20 157 7.8
2016-Feb-06 20:15 183 3 gusting 3 7.8
2016-Feb-06 20:10 175 7.8
2016-Feb-06 20:05 154 0 gusting 5 7.8
2016-Feb-06 20:00 170 2 gusting 4 7.2
2016-Feb-06 19:55 174 0 gusting 4 7.2
2016-Feb-06 19:49 194 0 gusting 4 7.2
2016-Feb-06 19:45 166 7.2
2016-Feb-06 19:39 166 7.2
2016-Feb-06 19:34 150 0 gusting 4 7.2
2016-Feb-06 19:29 150 1 gusting 3 7.2
2016-Feb-06 19:24 163 1 gusting 2 7.2
2016-Feb-06 19:19 163 7.2
2016-Feb-06 19:14 163 0 gusting 2 7.2
2016-Feb-06 19:09 163 7.2
2016-Feb-06 19:04 159 7.2
2016-Feb-06 18:59 117 0 gusting 4 7.2
2016-Feb-06 18:54 137 1 gusting 5 6.7
2016-Feb-06 18:49 137 1 gusting 5 6.7
2016-Feb-06 18:44 154 1 gusting 6 6.7
2016-Feb-06 18:39 133 4 gusting 6 6.7
2016-Feb-06 18:34 186 0 gusting 5 6.7
2016-Feb-06 18:29 202 6.7
2016-Feb-06 18:24 116 1 gusting 4 6.7
2016-Feb-06 18:19 143 4 gusting 4 6.7
2016-Feb-06 18:14 141 6.7
2016-Feb-06 18:09 141 1 gusting 5 6.7
2016-Feb-06 18:04 139 6.7
2016-Feb-06 17:59 139 6.7
2016-Feb-06 17:54 139 6.7
2016-Feb-06 17:49 139 6.7
2016-Feb-06 17:44 139 6.7
2016-Feb-06 17:39 139 6.7
2016-Feb-06 17:34 139 6.1
2016-Feb-06 17:29 139 6.1
2016-Feb-06 17:24 144 6.1
2016-Feb-06 17:19 144 6.1
2016-Feb-06 17:14 144 6.1
2016-Feb-06 17:09 144 6.1
2016-Feb-06 17:04 144 5.6
2016-Feb-06 16:59 144 1 gusting 4 5.6
2016-Feb-06 16:54 144 0 gusting 4 5.6
2016-Feb-06 16:49 144 5.6
2016-Feb-06 16:44 144 5.6
2016-Feb-06 16:39 144 0 gusting 2 5.6
2016-Feb-06 16:34 144 0 gusting 2 5.0
2016-Feb-06 16:29 144 5.0
2016-Feb-06 16:24 144 5.0
2016-Feb-06 16:19 144 5.0
2016-Feb-06 16:14 144 0 gusting 2 5.0
2016-Feb-06 16:09 144 1 gusting 2 5.0
2016-Feb-06 16:04 145 5.0
2016-Feb-06 15:59 145 5.0
2016-Feb-06 15:54 145 5.0
2016-Feb-06 15:49 145 5.0
2016-Feb-06 15:44 145 5.0
2016-Feb-06 15:39 145 5.0
2016-Feb-06 15:34 144 1 gusting 1 5.0
2016-Feb-06 15:29 144 5.0
2016-Feb-06 15:24 145 5.0
2016-Feb-06 15:19 145 5.0
2016-Feb-06 15:14 158 0 gusting 7 5.0
2016-Feb-06 15:09 151 2 gusting 5 5.0
2016-Feb-06 15:04 168 1 gusting 5 4.4
2016-Feb-06 14:59 123 4.4
2016-Feb-06 14:54 109 1 gusting 3 4.4
2016-Feb-06 14:49 108 1 gusting 2 4.4
2016-Feb-06 14:44 110 1 gusting 3 4.4
2016-Feb-06 14:39 109 5.0
2016-Feb-06 14:34 109 3 gusting 3 5.0
2016-Feb-06 14:29 141 1 gusting 4 5.0
2016-Feb-06 14:24 141 0 gusting 4 5.0
2016-Feb-06 14:19 182 4 gusting 6 5.0
2016-Feb-06 14:14 197 2 gusting 6 5.0
2016-Feb-06 14:09 171 2 gusting 6 5.0
2016-Feb-06 14:04 168 2 gusting 4 5.0
2016-Feb-06 13:59 166 2 gusting 5 5.0
2016-Feb-06 13:54 131 5.0
2016-Feb-06 13:49 175 4 gusting 8 5.0
2016-Feb-06 13:44 104 2 gusting 8 5.0
2016-Feb-06 13:39 172 1 gusting 6 5.0
2016-Feb-06 13:34 151 3 gusting 7 5.0
2016-Feb-06 13:29 129 4 gusting 7 5.0
2016-Feb-06 13:24 181 4 gusting 5 5.0
2016-Feb-06 13:19 158 1 gusting 6 5.0
2016-Feb-06 13:14 178 1 gusting 7 5.0
2016-Feb-06 13:09 164 1 gusting 7 5.0
2016-Feb-06 13:04 185 2 gusting 6 5.0
2016-Feb-06 12:59 164 1 gusting 6 5.0
2016-Feb-06 12:54 168 4 gusting 6 5.0
2016-Feb-06 12:49 155 1 gusting 6 5.0
2016-Feb-06 12:44 168 3 gusting 5 5.0
2016-Feb-06 12:39 164 3 gusting 6 5.0
2016-Feb-06 12:34 143 3 gusting 6 5.0
2016-Feb-06 12:29 195 1 gusting 6 5.0
2016-Feb-06 12:24 167 2 gusting 6 5.0
2016-Feb-06 12:19 183 2 gusting 6 5.0
2016-Feb-06 12:14 156 2 gusting 6 5.6
2016-Feb-06 12:09 158 1 gusting 10 5.6
2016-Feb-06 12:04 179 0 gusting 10 5.6
2016-Feb-06 11:59 160 9 gusting 9 5.6
2016-Feb-06 11:54 125 6 gusting 9 5.6
2016-Feb-06 11:49 175 3 gusting 5 5.6
2016-Feb-06 11:44 159 2 gusting 6 5.6
2016-Feb-06 11:39 104 2 gusting 7 5.6
2016-Feb-06 11:34 180 2 gusting 7 5.6
2016-Feb-06 11:29 162 0 gusting 6 6.1
2016-Feb-06 11:24 158 2 gusting 6 6.1
2016-Feb-06 11:19 163 2 gusting 8 5.6
2016-Feb-06 11:14 167 3 gusting 8 5.6
2016-Feb-06 11:09 168 2 gusting 6 5.6
2016-Feb-06 11:04 139 3 gusting 6 6.1
2016-Feb-06 10:59 143 0 gusting 6 6.1
2016-Feb-06 10:54 173 4 gusting 6 6.1
2016-Feb-06 10:49 143 3 gusting 6 6.1
2016-Feb-06 10:44 140 4 gusting 8 6.1
2016-Feb-06 10:39 131 4 gusting 8 6.1
2016-Feb-06 10:34 205 3 gusting 10 6.1
2016-Feb-06 10:29 177 7 gusting 10 6.7
2016-Feb-06 10:24 164 1 gusting 11 6.7
2016-Feb-06 10:19 158 5 gusting 11 6.7
2016-Feb-06 10:14 185 4 gusting 9 6.7
2016-Feb-06 10:09 158 5 gusting 13 6.7
2016-Feb-06 10:04 192 7 gusting 13 6.7
2016-Feb-06 09:59 190 3 gusting 9 6.7
2016-Feb-06 09:54 217 3 gusting 13 6.7
2016-Feb-06 09:49 151 4 gusting 13 6.7
2016-Feb-06 09:44 181 3 gusting 11 6.7
2016-Feb-06 09:39 177 6 gusting 7 6.7
2016-Feb-06 09:34 162 0 gusting 8 6.7
2016-Feb-06 09:29 177 3 gusting 8 6.7
2016-Feb-06 09:24 158 5 gusting 7 6.7
2016-Feb-06 09:19 358 0 gusting 13 6.7
2016-Feb-06 09:14 136 7 gusting 13 6.7
2016-Feb-06 09:09 115 3 gusting 8 6.7
2016-Feb-06 09:04 177 0 gusting 11 6.7
2016-Feb-06 08:59 181 4 gusting 11 6.7
2016-Feb-06 08:54 179 6 gusting 9 6.7
2016-Feb-06 08:49 125 2 gusting 7 7.2
2016-Feb-06 08:44 209 0 gusting 13 7.2
2016-Feb-06 08:39 070 2 gusting 13 7.2
2016-Feb-06 08:34 140 9 gusting 9 7.2
2016-Feb-06 08:29 156 5 gusting 10 7.2
2016-Feb-06 08:24 144 1 gusting 10 7.2
2016-Feb-06 08:19 138 10 gusting 11 7.2
2016-Feb-06 08:14 143 4 gusting 11 7.2
2016-Feb-06 08:09 190 4 gusting 8 7.2
2016-Feb-06 08:04 147 3 gusting 11 7.2
2016-Feb-06 08:00 157 1 gusting 11 7.2
2016-Feb-06 07:54 189 8 gusting 9 7.2
2016-Feb-06 07:49 165 5 gusting 9 7.2
2016-Feb-06 07:44 166 3 gusting 8 7.2
2016-Feb-06 07:39 170 1 gusting 8 7.2
2016-Feb-06 07:34 163 4 gusting 8 7.2
2016-Feb-06 07:29 180 4 gusting 8 7.2
2016-Feb-06 07:25 109 7.2
2016-Feb-06 07:19 100 2 gusting 8 7.2
2016-Feb-06 07:14 137 4 gusting 6 7.2
2016-Feb-06 07:09 163 4 gusting 6 7.2
2016-Feb-06 07:04 163 2 gusting 6 7.2
2016-Feb-06 06:59 155 3 gusting 3 7.2
2016-Feb-06 06:54 156 2 gusting 5 7.2
2016-Feb-06 06:49 156 1 gusting 6 7.2
2016-Feb-06 06:45 131 5 gusting 6 7.2
2016-Feb-06 06:40 191 1 gusting 3 7.2
2016-Feb-06 06:35 215 0 gusting 3 7.2
2016-Feb-06 06:30 213 7.2
2016-Feb-06 06:25 217 1 gusting 4 7.8
2016-Feb-06 06:20 216 1 gusting 5 7.8
2016-Feb-06 06:15 276 2 gusting 12 7.8
2016-Feb-06 06:10 297 7.8
2016-Feb-06 06:05 288 7.8
2016-Feb-06 06:00 303 0 gusting 7 7.8
2016-Feb-06 05:55 303 3 gusting 8 7.8
2016-Feb-06 05:50 309 4 gusting 8 7.8
2016-Feb-06 05:45 320 7.8
2016-Feb-06 05:40 307 4 gusting 8 8.3
2016-Feb-06 05:35 291 8.3
2016-Feb-06 05:30 263 3 gusting 13 8.9
2016-Feb-06 05:24 282 4 gusting 11 9.4
2016-Feb-06 05:20 145 5 gusting 11 9.4
2016-Feb-06 05:14 156 0 gusting 17 9.4
2016-Feb-06 05:10 148 7 gusting 17 9.4
2016-Feb-06 05:05 092 2 gusting 13 9.4
2016-Feb-06 05:00 153 5 gusting 15 9.4
2016-Feb-06 04:54 149 4 gusting 16 9.4
2016-Feb-06 04:50 153 9 gusting 19 9.4
2016-Feb-06 04:45 170 5 gusting 19 9.4
2016-Feb-06 04:40 125 6 gusting 22 9.4
2016-Feb-06 04:35 125 2 gusting 22 9.4
2016-Feb-06 04:30 150 7 gusting 17 9.4
2016-Feb-06 04:25 187 5 gusting 22 9.4
2016-Feb-06 04:20 178 0 gusting 23 9.4
2016-Feb-06 04:15 187 8 gusting 23 9.4
2016-Feb-06 04:10 142 8 gusting 22 9.4
2016-Feb-06 04:05 131 8 gusting 22 9.4
2016-Feb-06 04:00 083 6 gusting 19 9.4
2016-Feb-06 03:55 171 17 gusting 19 9.4
2016-Feb-06 03:50 139 8 gusting 26 9.4
2016-Feb-06 03:45 160 6 gusting 26 9.4
2016-Feb-06 03:40 164 4 gusting 19 8.9
2016-Feb-06 03:35 216 3 gusting 19 8.9
2016-Feb-06 03:30 147 12 gusting 16 8.9
2016-Feb-06 03:24 122 1 gusting 23 8.9
2016-Feb-06 03:19 190 7 gusting 23 8.9
2016-Feb-06 03:14 223 6 gusting 22 8.9
2016-Feb-06 03:09 152 13 gusting 22 8.9
2016-Feb-06 03:04 199 6 gusting 24 8.9
2016-Feb-06 02:59 148 1 gusting 24 8.9
2016-Feb-06 02:54 170 6 gusting 24 8.9
2016-Feb-06 02:49 148 10 gusting 24 8.9
2016-Feb-06 02:44 137 4 gusting 23 8.9
2016-Feb-06 02:39 136 15 gusting 23 8.9
2016-Feb-06 02:34 110 6 gusting 20 8.9
2016-Feb-06 02:29 104 18 gusting 24 8.9
2016-Feb-06 02:24 162 10 gusting 24 8.9
2016-Feb-06 02:19 120 8 gusting 22 8.9
2016-Feb-06 02:14 091 4 gusting 22 8.9
2016-Feb-06 02:09 171 5 gusting 22 8.9
2016-Feb-06 02:04 087 6 gusting 20 8.9
2016-Feb-06 01:59 133 5 gusting 17 8.9
2016-Feb-06 01:54 129 6 gusting 17 8.9
2016-Feb-06 01:49 143 3 gusting 15 8.9
2016-Feb-06 01:44 127 6 gusting 15 8.9
2016-Feb-06 01:39 133 5 gusting 17 8.9
2016-Feb-06 01:34 150 5 gusting 17 8.9
2016-Feb-06 01:29 175 7 gusting 19 8.9
2016-Feb-06 01:24 148 9 gusting 19 8.9
2016-Feb-06 01:19 134 19 gusting 19 8.9
2016-Feb-06 01:14 133 7 gusting 20 8.9
2016-Feb-06 01:09 118 12 gusting 20 8.9
2016-Feb-06 01:04 173 6 gusting 16 8.9
2016-Feb-06 00:59 166 1 gusting 16 8.9
2016-Feb-06 00:54 219 11 gusting 16 8.9
2016-Feb-06 00:49 162 8 gusting 15 8.9
2016-Feb-06 00:44 156 12 gusting 19 8.9
2016-Feb-06 00:39 164 6 gusting 19 8.9
2016-Feb-06 00:34 155 6 gusting 19 9.4
2016-Feb-06 00:29 112 7 gusting 19 9.4
2016-Feb-06 00:24 217 16 gusting 18 9.4
2016-Feb-06 00:19 058 4 gusting 17 9.4
2016-Feb-06 00:14 102 7 gusting 17 9.4
2016-Feb-06 00:09 199 4 gusting 17 10.0
2016-Feb-06 00:04 063 5 gusting 15 10.0
2016-Feb-05 23:59 187 9 gusting 21 10.6
2016-Feb-05 23:54 297 5 gusting 21 11.1
2016-Feb-05 23:49 226 20 gusting 20 11.1
2016-Feb-05 23:44 166 6 gusting 17 11.1
2016-Feb-05 23:39 145 6 gusting 17 11.7
2016-Feb-05 23:34 181 6 gusting 14 11.7
2016-Feb-05 23:29 209 9 gusting 12 11.7
2016-Feb-05 23:24 145 2 gusting 14 11.7
2016-Feb-05 23:19 120 5 gusting 14 11.7
2016-Feb-05 23:14 117 2 gusting 9 11.7
2016-Feb-05 23:09 110 6 gusting 12 11.7
2016-Feb-05 23:04 105 3 gusting 13 11.7
2016-Feb-05 22:59 037 2 gusting 16 12.2
2016-Feb-05 22:54 141 6 gusting 16 12.2
2016-Feb-05 22:49 168 6 gusting 21 12.2
2016-Feb-05 22:44 100 6 gusting 21 12.2
2016-Feb-05 22:39 083 9 gusting 16 12.2
2016-Feb-05 22:34 133 10 gusting 16 12.2
2016-Feb-05 22:29 106 6 gusting 15 12.2
2016-Feb-05 22:24 090 6 gusting 20 12.2
2016-Feb-05 22:19 144 6 gusting 20 12.2
2016-Feb-05 22:14 169 6 gusting 30 12.2
2016-Feb-05 22:09 110 11 gusting 30 12.2
2016-Feb-05 22:04 106 8 gusting 25 12.2
2016-Feb-05 21:59 137 10 gusting 29 12.2
2016-Feb-05 21:54 158 10 gusting 29 12.2
2016-Feb-05 21:49 095 9 gusting 19 12.2
2016-Feb-05 21:44 114 5 gusting 16 12.2
2016-Feb-05 21:39 077 13 gusting 16 12.2
2016-Feb-05 21:34 178 3 gusting 20 12.2
2016-Feb-05 21:29 074 7 gusting 20 12.2
2016-Feb-05 21:24 089 5 gusting 14 12.2
2016-Feb-05 21:19 122 3 gusting 14 12.8
2016-Feb-05 21:14 135 6 gusting 16 12.8
2016-Feb-05 21:09 086 13 gusting 16 12.8
2016-Feb-05 21:04 082 7 gusting 25 12.2
2016-Feb-05 20:59 098 8 gusting 25 12.8
2016-Feb-05 20:54 129 2 gusting 20 12.8
2016-Feb-05 20:49 104 6 gusting 20 12.8
2016-Feb-05 20:44 133 13 gusting 20 13.3
2016-Feb-05 20:39 106 0 gusting 17 13.3
2016-Feb-05 20:34 144 12 gusting 18 13.3
2016-Feb-05 20:29 170 1 gusting 27 13.3
2016-Feb-05 20:24 109 8 gusting 27 13.9
2016-Feb-05 20:19 106 8 gusting 20 13.9
2016-Feb-05 20:14 066 7 gusting 20 13.3
2016-Feb-05 20:09 160 8 gusting 20 13.3
2016-Feb-05 20:04 148 20 gusting 23 13.3
2016-Feb-05 19:59 135 3 gusting 23 13.3
2016-Feb-05 19:54 073 6 gusting 23 13.9
2016-Feb-05 19:49 167 7 gusting 26 13.9
2016-Feb-05 19:44 056 7 gusting 26 13.9
2016-Feb-05 19:39 179 4 gusting 22 13.9
2016-Feb-05 19:34 091 9 gusting 22 14.4
2016-Feb-05 19:29 081 12 gusting 19 14.4
2016-Feb-05 19:24 194 7 gusting 14 14.4
2016-Feb-05 19:19 093 10 gusting 19 14.4
2016-Feb-05 19:14 171 6 gusting 19 13.9
2016-Feb-05 19:09 146 7 gusting 18 13.9
2016-Feb-05 19:04 148 12 gusting 19 13.9
2016-Feb-05 18:59 137 5 gusting 21 13.9
2016-Feb-05 18:54 109 6 gusting 23 13.9
2016-Feb-05 18:49 061 8 gusting 23 13.9
2016-Feb-05 18:44 182 18 gusting 18 13.9
2016-Feb-05 18:39 117 8 gusting 14 13.3
2016-Feb-05 18:34 147 3 gusting 13 13.3
2016-Feb-05 18:29 145 7 gusting 11 13.3
2016-Feb-05 18:24 093 1 gusting 10 12.8
2016-Feb-05 18:19 142 10 gusting 11 12.8
2016-Feb-05 18:14 091 6 gusting 11 12.8
2016-Feb-05 18:09 170 3 gusting 14 12.2
2016-Feb-05 18:04 148 6 gusting 14 12.2
2016-Feb-05 17:59 121 3 gusting 12 11.7
2016-Feb-05 17:54 121 12 gusting 12 11.1
2016-Feb-05 17:49 154 6 gusting 11 11.1
2016-Feb-05 17:44 170 2 gusting 13 10.6
2016-Feb-05 17:39 116 2 gusting 13 10.0
2016-Feb-05 17:34 170 2 gusting 13 10.0
2016-Feb-05 17:29 107 2 gusting 14 10.0
2016-Feb-05 17:24 179 6 gusting 14 10.0
2016-Feb-05 17:19 195 3 gusting 13 9.4
2016-Feb-05 17:14 168 2 gusting 19 9.4
2016-Feb-05 17:09 128 6 gusting 19 9.4
2016-Feb-05 17:04 146 6 gusting 13 9.4
2016-Feb-05 16:59 102 2 gusting 9 9.4
2016-Feb-05 16:54 150 1 gusting 9 9.4
2016-Feb-05 16:49 120 1 gusting 12 9.4
2016-Feb-05 16:44 117 3 gusting 13 9.4
2016-Feb-05 16:39 125 6 gusting 14 9.4
2016-Feb-05 16:34 109 6 gusting 14 9.4
2016-Feb-05 16:29 118 2 gusting 13 9.4
2016-Feb-05 16:24 147 12 gusting 12 9.4
2016-Feb-05 16:19 154 1 gusting 11 9.4
2016-Feb-05 16:14 166 5 gusting 12 9.4
2016-Feb-05 16:09 177 11 gusting 12 9.4
2016-Feb-05 16:04 102 3 gusting 12 9.4
2016-Feb-05 15:59 135 0 gusting 11 9.4
2016-Feb-05 15:54 075 2 gusting 11 9.4
2016-Feb-05 15:49 071 2 gusting 10 9.4
2016-Feb-05 15:44 074 3 gusting 10 9.4
2016-Feb-05 15:39 098 1 gusting 9 8.9
2016-Feb-05 15:34 098 2 gusting 10 8.9
2016-Feb-05 15:29 073 6 gusting 10 8.9
2016-Feb-05 15:24 156 4 gusting 13 8.3
2016-Feb-05 15:19 090 3 gusting 13 8.3
2016-Feb-05 15:14 070 2 gusting 10 7.8
2016-Feb-05 15:09 095 2 gusting 9 7.8
2016-Feb-05 15:05 102 3 gusting 7 7.8
2016-Feb-05 14:59 095 6 gusting 7 7.8
2016-Feb-05 14:54 093 1 gusting 7 7.8
2016-Feb-05 14:50 150 2 gusting 5 7.8
2016-Feb-05 14:44 164 4 gusting 5 7.8
2016-Feb-05 14:39 117 1 gusting 6 7.8
2016-Feb-05 14:34 128 1 gusting 6 7.8
2016-Feb-05 14:30 100 0 gusting 4 7.8
2016-Feb-05 14:24 162 2 gusting 4 7.8
2016-Feb-05 14:19 140 0 gusting 4 8.3
2016-Feb-05 14:14 107 1 gusting 4 8.3
2016-Feb-05 14:09 137 0 gusting 4 8.3
2016-Feb-05 14:04 138 8.3
2016-Feb-05 13:59 160 8.3
2016-Feb-05 13:54 114 1 gusting 6 8.3
2016-Feb-05 13:49 108 1 gusting 6 8.9
2016-Feb-05 13:44 104 0 gusting 7 8.9
2016-Feb-05 13:39 127 0 gusting 9 8.9
2016-Feb-05 13:34 120 4 gusting 10 8.9
2016-Feb-05 13:29 147 5 gusting 10 8.9
2016-Feb-05 13:25 125 4 gusting 9 8.9
2016-Feb-05 13:19 151 2 gusting 10 8.9
2016-Feb-05 13:14 143 4 gusting 10 8.9
2016-Feb-05 13:10 179 2 gusting 9 8.3
2016-Feb-05 13:04 156 2 gusting 7 8.3
2016-Feb-05 13:00 098 3 gusting 7 8.3
2016-Feb-05 12:54 131 8.3
2016-Feb-05 12:49 114 2 gusting 3 8.3
2016-Feb-05 12:45 104 8.9
2016-Feb-05 12:40 126 8.9
2016-Feb-05 12:35 128 1 gusting 3 8.9
2016-Feb-05 12:30 114 1 gusting 2 8.9
2016-Feb-05 12:25 112 8.9
2016-Feb-05 12:20 114 0 gusting 4 8.9
2016-Feb-05 12:15 133 8.9
2016-Feb-05 12:10 131 8.9
2016-Feb-05 12:05 085 0 gusting 3 8.9
2016-Feb-05 12:00 134 8.9
2016-Feb-05 11:55 137 1 gusting 6 8.9
2016-Feb-05 11:49 168 8.9
2016-Feb-05 11:45 116 8.9
2016-Feb-05 11:40 113 0 gusting 7 8.9
2016-Feb-05 11:35 140 7 gusting 7 8.9
2016-Feb-05 11:30 095 1 gusting 6 8.9
2016-Feb-05 11:25 220 0 gusting 7 8.9
2016-Feb-05 11:20 147 6 gusting 7 8.9
2016-Feb-05 11:15 102 2 gusting 8 8.9
2016-Feb-05 11:09 093 0 gusting 8 8.9
2016-Feb-05 11:04 132 1 gusting 6 8.9
2016-Feb-05 10:59 102 3 gusting 3 8.9
2016-Feb-05 10:54 071 8.9
2016-Feb-05 10:49 090 2 gusting 6 8.9
2016-Feb-05 10:44 154 5 gusting 6 8.9
2016-Feb-05 10:39 110 2 gusting 6 8.9
2016-Feb-05 10:34 095 2 gusting 6 8.9
2016-Feb-05 10:29 152 3 gusting 6 9.4
2016-Feb-05 10:24 124 1 gusting 6 9.4
2016-Feb-05 10:19 125 1 gusting 7 9.4
2016-Feb-05 10:14 154 2 gusting 7 9.4
2016-Feb-05 10:09 068 1 gusting 8 9.4
2016-Feb-05 10:04 151 5 gusting 9 9.4
2016-Feb-05 09:59 133 1 gusting 9 9.4
2016-Feb-05 09:54 145 6 gusting 10 9.4
2016-Feb-05 09:49 100 9.4
2016-Feb-05 09:44 162 7 gusting 10 9.4
2016-Feb-05 09:39 093 4 gusting 10 9.4
2016-Feb-05 09:34 064 1 gusting 6 9.4
2016-Feb-05 09:29 131 1 gusting 6 9.4
2016-Feb-05 09:24 093 3 gusting 6 9.4
2016-Feb-05 09:19 108 4 gusting 6 9.4
2016-Feb-05 09:14 096 0 gusting 8 9.4
2016-Feb-05 09:09 080 1 gusting 8 9.4
2016-Feb-05 09:04 148 4 gusting 9 9.4
2016-Feb-05 08:59 119 3 gusting 9 9.4
2016-Feb-05 08:54 110 2 gusting 8 9.4
2016-Feb-05 08:49 143 5 gusting 15 9.4
2016-Feb-05 08:44 198 6 gusting 15 9.4
2016-Feb-05 08:39 147 12 gusting 14 9.4
2016-Feb-05 08:34 129 2 gusting 7 9.4
2016-Feb-05 08:29 179 2 gusting 8 10.0
2016-Feb-05 08:24 174 4 gusting 13 10.0
2016-Feb-05 08:19 148 4 gusting 14 10.0
2016-Feb-05 08:14 170 7 gusting 14 10.0
2016-Feb-05 08:09 138 13 gusting 14 10.0
2016-Feb-05 08:04 152 3 gusting 14 10.0
2016-Feb-05 07:59 163 8 gusting 13 10.0
2016-Feb-05 07:54 114 7 gusting 21 10.0
2016-Feb-05 07:49 139 12 gusting 21 10.0
2016-Feb-05 07:44 171 11 gusting 12 10.0
2016-Feb-05 07:39 158 6 gusting 12 10.0
2016-Feb-05 07:34 114 9 gusting 15 10.0
2016-Feb-05 07:29 223 6 gusting 15 10.0
2016-Feb-05 07:24 143 11 gusting 14 10.0
2016-Feb-05 07:19 147 1 gusting 14 10.0
2016-Feb-05 07:14 164 4 gusting 13 10.0
2016-Feb-05 07:09 144 5 gusting 13 10.0
2016-Feb-05 07:04 144 6 gusting 11 10.0
2016-Feb-05 06:59 132 5 gusting 10 10.0
2016-Feb-05 06:54 151 2 gusting 15 10.0
2016-Feb-05 06:49 141 4 gusting 15 10.0
2016-Feb-05 06:44 109 6 gusting 13 10.0
2016-Feb-05 06:39 148 4 gusting 15 10.0
2016-Feb-05 06:34 155 6 gusting 15 10.0
2016-Feb-05 06:29 174 12 gusting 13 10.0
2016-Feb-05 06:24 119 8 gusting 12 10.0
2016-Feb-05 06:19 100 4 gusting 10 10.0
2016-Feb-05 06:14 110 2 gusting 16 10.0
2016-Feb-05 06:09 167 4 gusting 16 10.0
2016-Feb-05 06:04 096 3 gusting 13 10.0
2016-Feb-05 05:59 162 8 gusting 13 10.0
2016-Feb-05 05:54 091 10.0
2016-Feb-05 05:49 151 11 gusting 13 10.0
2016-Feb-05 05:44 158 6 gusting 13 9.4
2016-Feb-05 05:39 073 6 gusting 19 9.4
2016-Feb-05 05:34 145 7 gusting 19 9.4
2016-Feb-05 05:29 166 8 gusting 18 9.4
2016-Feb-05 05:24 060 4 gusting 18 9.4
2016-Feb-05 05:19 213 4 gusting 20 9.4
2016-Feb-05 05:14 151 6 gusting 20 9.4
2016-Feb-05 05:09 076 6 gusting 18 9.4
2016-Feb-05 05:04 102 2 gusting 18 9.4
2016-Feb-05 04:59 125 7 gusting 17 9.4
2016-Feb-05 04:54 166 10 gusting 21 9.4
2016-Feb-05 04:49 109 4 gusting 21 9.4
2016-Feb-05 04:44 092 10 gusting 16 8.9
2016-Feb-05 04:39 095 1 gusting 10 8.9
2016-Feb-05 04:34 167 4 gusting 10 8.9
2016-Feb-05 04:29 167 8.9
2016-Feb-05 04:24 110 8.9
2016-Feb-05 04:19 089 1 gusting 11 8.9
2016-Feb-05 04:14 096 6 gusting 10 8.9
2016-Feb-05 04:09 145 2 gusting 11 8.9
2016-Feb-05 04:04 112 6 gusting 11 8.9
2016-Feb-05 03:59 157 1 gusting 10 8.9
2016-Feb-05 03:54 073 2 gusting 10 8.9
2016-Feb-05 03:49 075 3 gusting 10 8.3
2016-Feb-05 03:44 156 5 gusting 10 8.3
2016-Feb-05 03:39 095 2 gusting 7 8.3
2016-Feb-05 03:34 093 8.3
2016-Feb-05 03:29 112 1 gusting 6 8.3
2016-Feb-05 03:24 170 2 gusting 6 8.3
2016-Feb-05 03:19 157 8.3
2016-Feb-05 03:14 139 8.3
2016-Feb-05 03:09 132 0 gusting 6 8.3
2016-Feb-05 03:04 122 1 gusting 9 8.3
2016-Feb-05 02:59 150 0 gusting 9 8.3
2016-Feb-05 02:54 085 3 gusting 7 8.3
2016-Feb-05 02:49 068 1 gusting 11 8.3
2016-Feb-05 02:44 150 2 gusting 11 8.3
2016-Feb-05 02:39 093 2 gusting 10 8.3
2016-Feb-05 02:34 074 7 gusting 10 8.3
2016-Feb-05 02:29 090 0 gusting 10 8.3
2016-Feb-05 02:24 091 2 gusting 10 8.3
2016-Feb-05 02:19 112 1 gusting 10 8.3
2016-Feb-05 02:14 147 2 gusting 8 8.3
2016-Feb-05 02:09 093 2 gusting 10 8.3
2016-Feb-05 02:04 123 5 gusting 10 8.3
2016-Feb-05 01:59 121 3 gusting 11 8.3
2016-Feb-05 01:54 128 2 gusting 11 7.8
2016-Feb-05 01:49 120 2 gusting 4 7.8
2016-Feb-05 01:44 093 0 gusting 5 7.8
2016-Feb-05 01:39 105 1 gusting 8 7.8
2016-Feb-05 01:34 117 2 gusting 8 7.8
2016-Feb-05 01:29 048 8.3
2016-Feb-05 01:24 112 2 gusting 6 8.3
2016-Feb-05 01:19 117 0 gusting 6 8.3
2016-Feb-05 01:15 100 3 gusting 6 8.3
2016-Feb-05 01:09 064 8.3
2016-Feb-05 01:04 123 1 gusting 7 8.3